Regional Weather Roundup
Issued by NWS

Home | Current Version | Previous Version | Graphics & Text | Print | Product List | Glossary On
Versions: 1 2 3 4 5 6 7 8 9 10 11 12 13 14 15 16 17 18 19 20 21 22 23 24 25 26 27 28 29 30 31 32 33 34 35 36 37 38 39 40 41 42 43 44 45 46 47 48 49 50
000
ASUS43 KOAX 220102
RWRNE

WEATHER ROUNDUP FOR NEBRASKA
NATIONAL WEATHER SERVICE OMAHA NE
800 PM CDT SAT OCT 21 2017

NOTES: SATELLITE DATA IS BEING USED TO AUGMENT CLOUD COVER ABOVE
       12000 FEET.
       "FAIR" INDICATES FEW OR NO CLOUDS BELOW 12,000 FEET WITH NO
       SIGNIFICANT WEATHER AND/OR OBSTRUCTIONS TO VISIBILITY.


NEZ001>004-019>022-054>056-220200-
NEBRASKA PANHANDLE

CITY           SKY/WX    TMP DP  RH WIND       PRES   REMARKS
SCOTTSBLUFF    CLEAR     47  21  35 W9        30.04R
ALLIANCE       CLEAR     40  17  39 W10       30.02R HAZE    WCI  33
CHADRON        CLEAR     44  12  27 CALM      29.99R
GORDON         FAIR      44  18  35 W7        29.98R
KIMBALL        CLEAR     44  15  30 W16       30.09R
SIDNEY         CLEAR     46  15  28 W14       30.08R
$$

NEZ057>060-069>072-079>082-220200-
SOUTHWEST NEBRASKA

CITY           SKY/WX    TMP DP  RH WIND       PRES   REMARKS
NORTH PLATTE   CLEAR     43  29  57 NW6       30.01R
IMPERIAL       CLEAR     50  19  29 NW9       30.04R
LEXINGTON      CLEAR     44  33  66 NW8       29.98R
MCCOOK         CLEAR     49  24  37 NW9       30.00R
OGALLALA       CLEAR     41  24  50 CALM      30.04R
$$

NEZ005>010-023>029-035>040-094-220200-
NORTH CENTRAL NEBRASKA

CITY           SKY/WX    TMP DP  RH WIND       PRES   REMARKS
VALENTINE      CLEAR     46  29  51 W7        29.97R
AINSWORTH      PTCLDY    46  32  57 W3        29.97R
BROKEN BOW     CLEAR     41  34  76 N3        29.97R
O`NEILL        CLEAR     48  32  54 W6        29.95R
ORD            CLEAR     45  35  68 NW6       29.95R
THEDFORD       CLEAR     47  25  43 W7        29.99R
$$

NEZ041-046>049-061>064-073>077-083>087-220200-
SOUTH CENTRAL NEBRASKA

CITY           SKY/WX    TMP DP  RH WIND       PRES   REMARKS
GRAND ISLAND   CLEAR     46  39  76 NW3       29.96R
AURORA         CLEAR     44  38  77 CALM      29.97R
HASTINGS       CLEAR     46  37  71 SE3       29.99R
HEBRON         PTCLDY    54  40  57 NW7       29.97R
HOLDREGE       CLEAR     44  35  71 CALM      29.98R
KEARNEY        CLEAR     47  35  63 NW7       29.97R
YORK           CLEAR     48  39  71 CALM      29.97R
$$

NEZ011>018-030>034-042>045-220200-
NORTHEAST NEBRASKA

CITY           SKY/WX    TMP DP  RH WIND       PRES   REMARKS
NORFOLK        CLEAR     40  36  86 W6        29.92S
ALBION         PTCLDY    44  38  80 CALM      29.94F
BLAIR          CLOUDY    55  41  60 NW8       29.91R
COLUMBUS       CLEAR     46  37  71 W5        29.95S
FREMONT        CLOUDY    52  40  63 W12       29.92R
TEKAMAH        CLOUDY    54  40  59 NW9       29.89R
WAYNE          CLEAR     44  38  79 NW7       29.92F
$$

NEZ050>053-065>068-078-088>093-220200-
SOUTHEAST NEBRASKA

CITY           SKY/WX    TMP DP  RH WIND       PRES   REMARKS
LINCOLN        CLOUDY    55  39  54 NW12      29.95R
OMAHA EPPLEY   CLOUDY    55  42  61 NW9       29.90R
BEATRICE       CLOUDY    55  42  60 NW10      29.95R
FALLS CITY     CLOUDY    59  46  62 NW10      29.88R
NEBRASKA CITY  CLOUDY    57  44  61 NW10G17   29.90R
PLATTSMOUTH    CLOUDY    56  44  64 NW9       29.91R
$$

NEZ044-045-051>053-067-220200-
OMAHA AREA

CITY           SKY/WX    TMP DP  RH WIND       PRES   REMARKS
OMAHA EPPLEY   CLOUDY    55  42  61 NW9       29.90R
BLAIR          CLOUDY    55  41  60 NW8       29.91R
FREMONT        CLOUDY    52  40  63 W12       29.92R
MILLARD        CLOUDY    58  43  57 NW8       29.91R
OFFUTT AFB     CLOUDY    56  40  55 NW9G18    29.90R
PLATTSMOUTH    CLOUDY    56  44  64 NW9       29.91R
WAHOO          FAIR      54  39  58 NW8       29.93R
$$




USA.gov is the U.S. government's official web portal to all federal, state and local government web resources and services.